Погода в Шугурове

Россия / Пензенская область     53°24′39″N   46°28′27″E
темп.,
°C
ветер,
м/с
пор.,
м/с
влажн.,
%
обл.,
%
осадки,
мм/ч
давл.,
гПа
погр.,
м
19 сентября, вс
вс1900:00+2св227696 0.0 102510
03:00+1св1279100 0.0 102510
06:00+1всв2278100 0.0 102619
09:00+7в335291 0.0 1026638
12:00+10вюв2240100 0.0 10251165
15:00+11вюв2236100 0.0 10241350
18:00+9в3444100 0.0 102384
21:00+7вюв3750100 0.0 1024199
20 сентября, пн
пн2000:00+5в485774 0.0 1024190
03:00+6вюв51053100 0.0 1023360
06:00+6вюв51054100 0.0 1023413
09:00+7вюв5953100 0.3 1023483
12:00+7вюв6963100 0.6 1023824
15:00+7в61076100 1.7 1023708
18:00+6в61279100 0.7 1022580
21:00+6вюв61277100 2.0 1022857
21 сентября, вт
вт2100:00+6в61481100 0.8 1020634
03:00+6вюв71477100 1.4 1019579
06:00+6вюв71485100 1.1 1019563
09:00+5вюв61392100 2.3 1018546
12:00+10юв787564 0.0 1017710
15:00+13вюв685958 0.0 1015874
18:00+10в61164100 0.0 1015398
21:00+8в51370100 0.0 1014335
22 сентября, ср
ср2200:00+9вюв61171100 0.1 1013290
03:00+9вюв51395100 0.6 1011385
06:00+9вюв51095100 0.2 1011356
09:00+9вюв51094100 1.6 1010409
12:00+10юв3798100 5.8 1010335
15:00+10юв2399100 7.3 1011133
18:00+10ююв229561 0.1 101215
21:00+9ююв349496 0.1 101459
23 сентября, чт
чт2300:00+10ю119397 0.0 101411
03:00+10в2392100 0.0 101461
06:00+9юв2495100 0.1 101498
09:00+12ююв3588100 0.3 1014257
12:00+14юв4670100 0.1 1013646
15:00+12юв5992100 1.1 1013576
18:00+10юв51195100 1.9 1013778
21:00+9ююв61393100 2.4 1013588